{"data":{"norad_id":68944,"epoch":"2026-05-24T19:02:04.380000Z","epoch_age_seconds":86722,"freshness":"FRESH","line1":"1 68944U 26098AB  26144.79310625  .00007402  00000+0  23197-3 0  9993","line2":"2 68944  51.8714 180.4603 0006781  59.6185 300.5470 15.34092900  3754","mean_motion":15.340929,"eccentricity":0.0006781,"inclination_deg":51.8714,"raan_deg":180.4603,"arg_perigee_deg":59.6185,"mean_anomaly_deg":300.547,"bstar":0.00023197,"rev_number":375,"period_min":93.866544848751,"perigee_km":458.97676557259,"apogee_km":468.255551206,"semimajor_km":6841.7531583893,"source":"CELESTRAK","updated_at":"2026-05-25T13:38:08.797965Z"}}